Weather History for KABI - October, 2011

Change the Weather History Date:

Friday, October 14, 2011

  Actual Average Record
Temperature  
Mean Temperature 73 °F 66 °F  
Max Temperature 86 °F 78 °F 94 °F (1972)
Min Temperature 59 °F 55 °F 38 °F (1969)
Degree Days  
Heating Degree Days 0 2  
Month to date heating degree days 0 24  
Since 1 July heating degree days 0 35  
Cooling Degree Days 8 4  
Month to date cooling degree days 88 72  
Year to date cooling degree days 3430 2343  
Growing Degree Days 22 (Base 50)    
Moisture  
Dew Point 43 °F    
Average Humidity 40    
Maximum Humidity 55    
Minimum Humidity 25    
Precipitation  
Precipitation 0.00 in 0.11 in 2.37 in (1923)
Month to date precipitation 3.81 1.31  
Year to date precipitation 14.44 20.51  
Sea Level Pressure  
Sea Level Pressure 29.89 in    
Wind  
Wind Speed 12 mph (South)    
Max Wind Speed 25 mph    
Max Gust Speed 32 mph    
Visibility 10 miles    
Events      
T = Trace of Precipitation, MM = Missing Value Source: NWS Daily Summary

Daily Weather History Graph

Daily Weather History Graph

Search for Another Location

Airport or City:

Trip Planner

Search our weather history database for the weather conditions in past years. The results will help you decide how hot, cold, wet, or windy it might be!

Date:

Astronomy

Oct. 14, 2011 Rise Set
Actual Time 7:41 AM CDT 7:07 PM CDT
Civil Twilight 7:16 AM CDT 7:32 PM CDT
Nautical Twilight 6:48 AM CDT 8:00 PM CDT
Astronomical Twilight 6:19 AM CDT 8:28 PM CDT
Moon 8:34 PM CDT (10/14) 10:00 AM CDT (10/14)
Length of Visible Light 12h 15m
Length of Day
11h 25m
Waning Gibbous, 94% of the Moon is Illuminated
Oct 14
Waning Gibbous
Oct 19
Last Quarter
Oct 26
New
Nov 2
First Quarter
Nov 10
Full

Hourly Weather History & Observations

Time (CDT) Temp. Dew Point Humidity Pressure Visibility Wind Dir Wind Speed Gust Speed Precip Events Conditions
12:52 AM 60.1 °F 45.0 °F 57% 29.92 in 10.0 mi SSE 6.9 mph - N/A   Clear
1:52 AM 62.1 °F 44.1 °F 52% 29.90 in 10.0 mi SSE 8.1 mph - N/A   Clear
2:52 AM 63.0 °F 43.0 °F 48% 29.90 in 10.0 mi South 8.1 mph - N/A   Clear
3:52 AM 63.0 °F 43.0 °F 48% 29.89 in 10.0 mi SSE 8.1 mph - N/A   Clear
4:52 AM 63.0 °F 42.1 °F 46% 29.89 in 10.0 mi SSE 9.2 mph - N/A   Clear
5:52 AM 61.0 °F 42.1 °F 50% 29.89 in 10.0 mi SSE 8.1 mph - N/A   Clear
6:52 AM 63.0 °F 41.0 °F 45% 29.89 in 10.0 mi SSE 8.1 mph - N/A   Clear
7:52 AM 64.0 °F 39.9 °F 41% 29.91 in 10.0 mi South 6.9 mph - N/A   Clear
8:52 AM 66.9 °F 41.0 °F 39% 29.93 in 10.0 mi South 11.5 mph - N/A   Clear
9:52 AM 73.0 °F 39.9 °F 30% 29.94 in 10.0 mi South 11.5 mph 20.7 mph N/A   Clear
10:52 AM 75.0 °F 41.0 °F 29% 29.95 in 10.0 mi South 16.1 mph - N/A   Clear
11:52 AM 79.0 °F 41.0 °F 26% 29.94 in 10.0 mi South 17.3 mph 26.5 mph N/A   Clear
12:52 PM 80.1 °F 42.1 °F 26% 29.92 in 10.0 mi SSW 21.9 mph 27.6 mph N/A   Clear
1:52 PM 82.0 °F 44.1 °F 26% 29.89 in 10.0 mi South 18.4 mph 28.8 mph N/A   Clear
2:52 PM 84.0 °F 44.1 °F 25% 29.86 in 10.0 mi SSW 21.9 mph 25.3 mph N/A   Clear
3:52 PM 84.9 °F 44.1 °F 24% 29.84 in 10.0 mi South 17.3 mph 24.2 mph N/A   Clear
4:52 PM 84.9 °F 44.1 °F 24% 29.83 in 10.0 mi SSW 17.3 mph 23.0 mph N/A   Clear
5:52 PM 84.0 °F 44.1 °F 25% 29.83 in 10.0 mi South 12.7 mph - N/A   Clear
6:52 PM 81.0 °F 45.0 °F 28% 29.83 in 10.0 mi South 9.2 mph - N/A   Clear
7:52 PM 73.0 °F 48.0 °F 41% 29.85 in 10.0 mi SSE 10.4 mph - N/A   Clear
8:52 PM 73.0 °F 46.0 °F 38% 29.85 in 10.0 mi SSE 11.5 mph - N/A   Clear
9:52 PM 75.0 °F 44.1 °F 33% 29.86 in 10.0 mi South 10.4 mph - N/A   Clear
10:52 PM 73.9 °F 44.1 °F 34% 29.88 in 10.0 mi South 11.5 mph - N/A   Clear
11:52 PM 71.1 °F 45.0 °F 39% 29.89 in 10.0 mi South 10.4 mph - N/A   Clear